TIME,DELAY(SENSOR),PRES,OXYGEN,RAWTEMP,T(OPTODE),TCPHASE,FLUOR,BETA(BETA700),BETA(BETA412),BETA(BETA440),CDOM,C(CSC),ED(ED412.40),ED(ED444.00),ED(ED489.70),ED(ED554.30),LU(LU411.80),LU(LU443.40),LU(LU489.60),LU(LU554.10),COMP,TILTX,TILTY,CHECK
1356925467,5808,885.3699951171875000,47.1755485534668000,666.1785278320312000,4.4243550300598145,54.0202293395996100,52,100,86,79,80,15145,2147754176,2147422884,2148010733,2147874377,2147642998,2147065316,2148262418,2147195702,564,4,13,20961
1356929063,5811,977.0300292968750000,48.4968490600585940,672.0391845703125000,4.2308101654052730,53.9031105041503900,53,98,87,78,81,15141,2147757257,2147421988,2148011017,2147877056,2147644626,2147056621,2148259684,2147197513,350,4,13,15077
1356932663,5808,976.7700195312500000,49.1037712097168000,674.4860839843750000,4.1498908996582030,53.8465995788574200,53,98,82,80,81,15144,2147757604,2147422555,2148011090,2147877293,2147643556,2147055442,2148260260,2147197275,468,4,13,61072
1356936263,5810,986.6400146484375000,49.6182403564453100,674.9672851562500000,4.1339678764343260,53.7823486328125000,53,100,90,79,79,15143,2147757001,2147423725,2148011392,2147874980,2147643721,2147060114,2148261513,2147198244,633,4,13,10229
1356939863,5811,986.0300292968750000,49.5377006530761700,675.8345947265625000,4.1052651405334470,53.8101387023925800,53,100,86,78,82,15145,2147756032,2147421074,2148010907,2147873929,2147646976,2147057865,2148264100,2147194998,148,4,13,41084
1356943463,5810,988.5100097656250000,49.4306297302246100,676.9404296875000000,4.0686550140380860,53.8354187011718750,53,102,88,78,81,15141,2147757129,2147424237,2148013842,2147873682,2147641344,2147058048,2148261001,2147193261,406,4,13,16895
1356947063,5807,983.1300048828125000,49.6186599731445300,678.0740966796875000,4.0311069488525390,53.8226890563964840,54,98,90,79,81,15143,2147759168,2147425536,2148012626,2147874514,2147644288,2147050697,2148263808,2147194194,2636,4,13,48535
1356950663,5808,990.4299926757812000,49.5874595642089840,677.4304809570312000,4.0524268150329590,53.8228683471679700,52,99,88,80,81,15145,2147757449,2147424896,2148010203,2147872932,2147642221,2147055506,2148264100,2147197961,3472,4,13,31354
1356954263,5811,992.6199951171875000,49.4148788452148440,677.1652832031250000,4.0612068176269530,53.8430480957031250,52,98,83,80,81,15143,2147762176,2147424969,2148012004,2147872146,2147644297,2147057499,2148259565,2147195520,127,4,14,9905
1356957863,5810,993.8300170898438000,49.1957893371582000,676.7468872070312000,4.0750641822814940,53.8640594482421900,52,100,85,79,81,15142,2147756452,2147426084,2148012507,2147872960,2147646875,2147056219,2148257490,2147198372,3500,4,13,45389
1356961463,5812,992.7800292968750000,49.2011795043945300,677.9020996093750000,4.0368061065673830,53.8782310485839840,53,98,89,80,81,15140,2147757037,2147422189,2148008713,2147873600,2147643584,2147060160,2148260562,2147196635,22,4,13,64790
1356965063,5810,995.4199829101562000,49.4566192626953100,677.9534301757812000,4.0351052284240720,53.8477783203125000,53,98,86,79,81,15139,2147759625,2147425691,2148010752,2147872777,2147649362,2147061129,2148263232,2147196918,3469,4,14,5156
1356968663,5809,1001.1500244140625000,49.2673301696777340,677.3745117187500000,4.0542788505554200,53.8669281005859400,52,100,86,78,81,15135,2147757357,2147425664,2148009014,2147874486,2147644553,2147058166,2148265307,2147195913,3275,4,13,26614
1356972263,5808,998.8499755859375000,49.3344001770019500,677.2764282226562000,4.0575289726257320,53.8520393371582000,53,98,87,79,81,15137,2147759881,2147424886,2148008694,2147874998,2147643355,2147054628,2148262784,2147197961,135,4,13,19278
1356975863,5809,996.8699951171875000,49.1579818725585940,676.9199218750000000,4.0693359375000000,53.8748893737793000,52,99,89,79,81,15138,2147758244,2147426624,2148012544,2147873417,2147642541,2147056676,2148261622,2147194624,3467,4,13,41332
1356979463,5810,1000.4299926757812000,48.9053497314453100,677.3297729492188000,4.0557608604431150,53.9182205200195300,52,97,88,78,83,15136,2147753069,2147424274,2148012553,2147875117,2147645760,2147055012,2148263762,2147196891,9,4,13,31331
1356983063,5811,998.4899902343750000,48.8937683105468750,677.0501098632812000,4.0650229454040530,53.9098396301269500,52,99,90,80,82,15132,2147756406,2147423021,2148011236,2147874816,2147644288,2147060589,2148267126,2147192054,394,4,13,10173
1356986663,5807,998.7000122070312000,48.9301986694335940,677.5325927734375000,4.0490441322326660,53.9155197143554700,52,98,87,79,81,15133,2147756196,2147428672,2148010624,2147873481,2147643392,2147056685,2148266203,2147198061,33,4,13,16001
1356990263,5809,1008.1900024414062000,49.2699699401855500,677.0916748046875000,4.0636458396911620,53.8632087707519500,52,98,87,78,81,15133,2147756269,2147422930,2148010806,2147873618,2147641133,2147051209,2148263058,2147197074,57,4,13,55399
1356993863,5809,1004.2299804687500000,49.0053405761718750,676.5875244140625000,4.0803408622741700,53.8878211975097660,53,97,85,79,81,15135,2147761270,2147422162,2148010057,2147872685,2147644982,2147061741,2148263030,2147197046,272,4,13,27848
1356997463,5810,996.8300170898438000,48.5159301757812500,677.2141113281250000,4.0595908164978030,53.9632606506347660,52,99,87,78,81,15134,2147756589,2147420187,2148010532,2147876370,2147643273,2147057280,2148258770,2147195821,3429,4,13,29766
1357001063,5811,1009.2700195312500000,49.2695198059082000,677.4816284179688000,4.0507321357727050,53.8653182983398440,53,100,86,79,80,15133,2147759140,2147425901,2148009801,2147872640,2147645595,2147058413,2148263378,2147195291,19,4,13,27592
1357004663,5810,1002.2999877929688000,48.9067497253418000,677.1533813476562000,4.0616040229797360,53.9079589843750000,53,99,88,79,81,15132,2147758482,2147425526,2148010587,2147872329,2147646043,2147062308,2148262198,2147197632,90,4,13,34581
1357008263,5805,998.5499877929688000,48.6994018554687500,677.2653808593750000,4.0578942298889160,53.9422111511230500,53,100,85,80,82,15131,2147759808,2147422272,2148010130,2147874267,2147645193,2147060114,2148265718,2147199396,3267,4,13,42922
1357011863,5810,1007.0700073242188000,49.0376892089843750,677.3388061523438000,4.0554618835449220,53.8928108215332000,53,100,91,78,82,15133,2147757467,2147423296,2148005796,2147877202,2147645056,2147061412,2148264192,2147193700,230,4,13,26027
1357015463,5808,1005.0200195312500000,48.4453697204589840,677.1942749023438000,4.0602488517761230,53.9766197204589840,52,99,88,80,80,15122,2147761161,2147426788,2148011876,2147871177,2147643620,2147060077,2148264365,2147196406,42,4,13,33760
1357019063,5810,1006.9299926757812000,49.0267791748046900,677.2868041992188000,4.0571842193603520,53.8949394226074200,53,96,85,80,81,15117,2147756041,2147424256,2148010358,2147873746,2147644315,2147058514,2148258660,2147197641,285,4,13,4370
1357022663,5811,1002.9699707031250000,48.4469604492187500,677.7138061523438000,4.0430431365966800,53.9811782836914060,52,98,86,79,81,15123,2147755629,2147422976,2148008073,2147874742,2147644068,2147057984,2148264137,2147196315,3404,4,13,2374
1357026263,5808,1001.4899902343750000,48.8208694458007800,678.1660766601562000,4.0280590057373050,53.9372215270996100,52,100,84,78,81,15121,2147760694,2147420251,2148011492,2147876187,2147645933,2147056374,2148261403,2147195968,643,4,13,53855
1357029863,5809,1001.1799926757812000,48.8119583129882800,677.6275024414062000,4.0458998680114750,53.9298706054687500,53,98,88,78,81,15119,2147760274,2147422966,2148009069,2147875236,2147644132,2147057435,2148263113,2147195373,302,4,14,37353
1357033463,5809,1000.2800292968750000,48.8497390747070300,678.1710205078125000,4.0279011726379395,53.9358711242675800,53,102,84,79,80,15108,2147756498,2147421494,2148009280,2147876096,2147644717,2147058102,2148260077,2147198747,3577,4,14,19975
1357037063,5808,999.3300170898438000,49.2375907897949200,679.1093139648438000,3.9968090057373047,53.8900909423828100,52,99,86,78,81,15118,2147757604,2147425014,2148013467,2147874066,2147641810,2147058989,2148260114,2147198390,313,4,13,33153
1357040663,5808,1002.4899902343750000,49.1542396545410160,678.1994018554688000,4.0269570350646970,53.8931694030761700,52,98,87,79,82,15119,2147758601,2147425572,2148013741,2147874112,2147645997,2147057334,2148255926,2147197924,66,4,13,42126
1357044263,5808,998.6400146484375000,49.3296508789062500,678.8892822265625000,4.0041007995605470,53.8730201721191400,52,99,90,79,80,15116,2147757842,2147424374,2148010349,2147875611,2147643584,2147059108,2148260955,2147198738,3288,4,13,15992
1357047863,5809,1005.5999755859375000,49.3905906677246100,679.1882934570312000,3.9941918849945070,53.8673782348632800,53,99,86,79,80,15118,2147761444,2147426166,2148010596,2147874185,2147643456,2147057024,2148264493,2147198793,3322,4,13,23739
1357051463,5809,1008.8599853515625000,49.7093391418457000,679.1417846679688000,3.9957311153411865,53.8284111022949200,52,98,88,79,80,15110,2147757723,2147422866,2148009974,2147877604,2147645522,2147055515,2148260315,2147196434,3225,4,13,61081
1357055063,5810,1017.8099975585938000,49.0749893188476560,677.0123901367188000,4.0662732124328610,53.8853607177734400,52,100,84,79,80,15110,2147759241,2147422208,2148011803,2147876626,2147644480,2147060141,2148261531,2147197641,471,4,13,65430
1357058663,5808,1013.9699707031250000,48.5159606933593750,677.5529174804688000,4.0483741760253910,53.9689712524414060,53,100,90,79,81,15108,2147758921,2147423277,2148009444,2147875894,2147643108,2147055835,2148262070,2147197814,277,4,13,59548
1357062263,5809,1013.5900268554688000,48.4702301025390600,676.1807861328125000,4.0938048362731930,53.9592094421386700,52,100,86,78,81,15106,2147758518,2147422217,2148009920,2147874514,2147645632,2147056859,2148265408,2147198683,116,4,13,48475
1357065863,5807,1014.6400146484375000,48.0248794555664060,675.2926025390625000,4.1232028007507320,54.0138893127441400,52,97,89,78,81,15108,2147754532,2147422080,2148012845,2147874633,2147643227,2147059766,2148261449,2147198656,178,4,13,34714
1357069463,5806,1009.9899902343750000,48.3061294555664060,676.4453735351562000,4.0850429534912110,53.9865303039550800,52,98,86,79,82,15109,2147755958,2147422866,2148008704,2147873545,2147640411,2147057042,2148259474,2147196525,124,4,13,34083
1357070455,5808,1014.7199707031250000,48.5168991088867200,676.7236938476562000,4.0758318901062010,53.9614410400390600,52,99,84,78,81,15120,2147758345,2147422180,2148007131,2147875538,2147642669,2147058441,2148260781,2147198189,3139,4,13,12926
